Heat Advisory
until 8:00 PM EDT
| Temperature (°F) | Max | Average | Min |
|---|---|---|---|
| Max Temperature | 85 | 75.35 | 52 |
| Avg Temperature | 74.26 | 64.37 | 48.1 |
| Min Temperature | 68 | 55.26 | 45 |
| Precipitation (in) | Max | Average | Min | Sum |
|---|---|---|---|---|
| Precipitation | 3.68 | 0.38 | 0 | 11.9 |
| Dew Point (°F) | Max | Average | Min |
|---|---|---|---|
| Dew Point | 66.83 | 54.67 | 42.64 |
| Wind (mph) | Max | Average | Min |
|---|---|---|---|
| Wind | 28 | 13.81 | 6 |
| Gust Wind | 39 | 20.51 | 9 |
| Sea Level Pressure (in) | Max | Average | Min |
|---|---|---|---|
| Sea Level Pressure | 28.96 | 28.75 | 28.51 |
| Date | Temp High/Low | Dew Pt High/Low | Humidity | Wind | Max Wind | Wind Gust | Pressure | Precip. | Condition |
|---|---|---|---|---|---|---|---|---|---|
| 9/1/2021 | 75 °F / 58 °F | 58 °F / 50 °F | 67 % | 13 mph | - | 28.67 in | 0 in | ||
| 9/2/2021 | 75 °F / 47 °F | 55 °F / 44 °F | 71 % | 7 mph | - | 28.86 in | 0 in | ||
| 9/3/2021 | 74 °F / 51 °F | 57 °F / 48 °F | 71 % | 7 mph | - | 28.87 in | 0 in | ||
| 9/4/2021 | 77 °F / 60 °F | 62 °F / 55 °F | 77 % | 14 mph | - | 28.7 in | 0 in | ||
| 9/5/2021 | 80 °F / 56 °F | 63 °F / 42 °F | 68 % | 21 mph | - | 28.61 in | 0 in | ||
| 9/6/2021 | 76 °F / 51 °F | 60 °F / 47 °F | 66 % | 16 mph | - | 28.67 in | 0 in | ||
| 9/7/2021 | 85 °F / 49 °F | 66 °F / 48 °F | 74 % | 28 mph | - | 28.57 in | 1.18 in | ||
| 9/8/2021 | 77 °F / 55 °F | 64 °F / 46 °F | 70 % | 18 mph | - | 28.53 in | 0.02 in | ||
| 9/9/2021 | 72 °F / 48 °F | 55 °F / 44 °F | 73 % | 17 mph | - | 28.7 in | 0 in | ||
| 9/10/2021 | 76 °F / 46 °F | 58 °F / 44 °F | 74 % | 8 mph | - | 28.83 in | 0 in | ||
| 9/11/2021 | 80 °F / 55 °F | 64 °F / 52 °F | 70 % | 14 mph | - | 28.75 in | 0 in | ||
| 9/12/2021 | 84 °F / 68 °F | 69 °F / 63 °F | 74 % | 13 mph | - | 28.75 in | 0 in | ||
| 9/13/2021 | 83 °F / 66 °F | 71 °F / 64 °F | 82 % | 10 mph | - | 28.81 in | 0 in | ||
| 9/14/2021 | 85 °F / 64 °F | 73 °F / 62 °F | 81 % | 17 mph | - | 28.63 in | 2.53 in | ||
| 9/15/2021 | 74 °F / 55 °F | 62 °F / 52 °F | 80 % | 9 mph | - | 28.73 in | 0 in | ||
| 9/16/2021 | 78 °F / 53 °F | 60 °F / 48 °F | 69 % | 8 mph | - | 28.87 in | 0 in | ||
| 9/17/2021 | 85 °F / 59 °F | 66 °F / 57 °F | 77 % | 12 mph | - | 28.86 in | 0 in | ||
| 9/18/2021 | 78 °F / 62 °F | 63 °F / 51 °F | 73 % | 10 mph | - | 28.91 in | 0 in | ||
| 9/19/2021 | 83 °F / 58 °F | 63 °F / 48 °F | 68 % | 10 mph | - | 28.9 in | 0 in | ||
| 9/20/2021 | 77 °F / 65 °F | 70 °F / 62 °F | 85 % | 15 mph | - | 28.79 in | 0.92 in | ||
| 9/21/2021 | 75 °F / 57 °F | 66 °F / 55 °F | 87 % | 16 mph | - | 28.77 in | 0.55 in | ||
| 9/22/2021 | 57 °F / 47 °F | 55 °F / 46 °F | 94 % | 24 mph | - | 28.7 in | 3.65 in | ||
| 9/23/2021 | 52 °F / 46 °F | 50 °F / 44 °F | 91 % | 21 mph | - | 28.53 in | 2.34 in | ||
| 9/24/2021 | 72 °F / 48 °F | 51 °F / 41 °F | 62 % | 15 mph | - | 28.69 in | 0 in | ||
| 9/25/2021 | 65 °F / 45 °F | 55 °F / 36 °F | 70 % | 15 mph | - | 28.7 in | 0.71 in | ||
| 9/26/2021 | 77 °F / 48 °F | 49 °F / 39 °F | 51 % | 16 mph | - | 28.7 in | 0 in | ||
| 9/27/2021 | 81 °F / 60 °F | 62 °F / 49 °F | 62 % | 13 mph | - | 28.59 in | 0 in | ||
| 9/28/2021 | 71 °F / 50 °F | 60 °F / 41 °F | 73 % | 9 mph | - | 28.73 in | 0 in | ||
| 9/29/2021 | 74 °F / 48 °F | 56 °F / 46 °F | 75 % | 7 mph | - | 28.84 in | 0 in | ||
| 9/30/2021 | 73 °F / 46 °F | 55 °F / 44 °F | 73 % | 8 mph | - | 28.94 in | 0 in |